This demonstration page uses our WeatherBlox Daily Observations layout. Learn more.

Left ArrowRight Arrow

Hourly Observations for November 4, 2019

Temp ( °F °C ) Dew Point ( °F °C ) Humidity (%) Winds ( mph kmh ) Pressure ( in mb ) Visibility ( mi km ) Precip ( " mm )
12:53 am 00:53 Clear 46 7.8 31 -0.6 56 56 Calm 29.98 1015 10 16 0.00 0.00
1:53 am 01:53 Clear 44 6.7 32 0 63 63 Calm 29.98 1015 10 16 0.00 0.00
2:53 am 02:53 Clear 43 6.1 32 0 65 65 Calm 29.98 1015 10 16 0.00 0.00
3:53 am 03:53 Clear 41 5 31 -0.6 67 67 Calm 29.98 1015 10 16 0.00 0.00
4:53 am 04:53 Clear 41 5 31 -0.6 67 67 Calm 29.98 1015 10 16 0.00 0.00
5:53 am 05:53 Clear 39 3.9 28 -2.2 65 65 Calm 29.99 1016 10 16 0.00 0.00
6:53 am 06:53 Sunny 39 3.9 31 -0.6 73 73 Calm 30.00 1016 10 16 0.00 0.00
7:53 am 07:53 Sunny 47 8.3 33 0.6 59 59 Calm 30.01 1016 10 16 0.00 0.00
8:53 am 08:53 Sunny 52 11.1 35 1.7 53 53 Calm 30.01 1016 10 16 0.00 0.00
9:53 am 09:53 Sunny 61 16.1 35 1.7 38 38 Calm 30.00 1016 10 16 0.00 0.00
10:53 am 10:53 Sunny 70 21.1 36 2.2 29 29 Calm 29.98 1015 10 16 0.00 0.00
11:53 am 11:53 Sunny 79 26.1 37 2.8 22 22 Calm 29.95 1014 10 16 0.00 0.00
12:53 pm 12:53 Sunny 86 30 32 0 14 14 NNE 6 9 29.92 1013 10 16 0.00 0.00
1:53 pm 13:53 Sunny 87 30.6 32 0 14 14 NE 6 9 29.90 1013 10 16 0.00 0.00
2:53 pm 14:53 Sunny 88 31.1 33 0.6 14 14 VRB 5 7 29.90 1012 10 16 0.00 0.00
3:53 pm 15:53 Sunny 88 31.1 35 1.7 15 15 N 6 9 29.90 1012 10 16 0.00 0.00
4:53 pm 16:53 Sunny 78 25.6 38 3.3 24 24 Calm 29.90 1012 10 16 0.00 0.00
5:53 pm 17:53 Clear 69 20.6 37 2.8 31 31 Calm 29.92 1013 10 16 0.00 0.00
6:53 pm 18:53 Clear 68 20 37 2.8 32 32 Calm 29.95 1014 10 16 0.00 0.00
7:53 pm 19:53 Clear 64 17.8 37 2.8 37 37 Calm 29.97 1015 10 16 0.00 0.00
8:53 pm 20:53 Clear 59 15 37 2.8 44 44 Calm 29.99 1016 10 16 0.00 0.00
9:53 pm 21:53 Clear 55 12.8 37 2.8 51 51 Calm 30.01 1016 10 16 0.00 0.00
10:53 pm 22:53 Clear 51 10.6 35 1.7 54 54 Calm 30.02 1017 10 16 0.00 0.00
11:53 pm 23:53 Clear 50 10 36 2.2 59 59 Calm 30.02 1017 10 16 0.00 0.00

Powered by AerisWeather